Regional Weather Roundup
Issued by NWS Cleveland, OH

Home | Current Version | Previous Version | Text Only | Print | Product List | Glossary Off
Versions: 1 2 3 4 5 6 7 8 9 10 11 12 13 14 15 16 17 18 19 20 21 22 23 24 25 26 27 28 29 30 31 32 33 34 35 36 37 38 39 40 41 42 43 44 45 46 47 48 49 50

000
ASUS41 KCLE 270810
RWRCLE
OHIO REGIONAL WEATHER ROUNDUP
NATIONAL WEATHER SERVICE CLEVELAND, OH
400 AM EDT WED MAY 27 2015

NOTE: "FAIR" INDICATES FEW OR NO CLOUDS BELOW 12,000 FEET WITH NO
SIGNIFICANT WEATHER AND/OR OBSTRUCTIONS TO VISIBILITY.

OHZ001>008-015>018-024>027-034-035-043-044-270900-
   NORTHWEST OHIO

CITY           SKY/WX    TMP DP  RH WIND       PRES   REMARKS
DEFIANCE       PTCLDY    67  60  78 S9        29.96S
FINDLAY        PTCLDY    68  64  87 S13       29.98S
TOLEDO EXPRESS PTCLDY    67  64  90 SW8       29.95S
TOLEDO EXEC    MOCLDY    68  64  87 S10       29.96S
LIMA           PTCLDY    66  64  93 S10       30.00S
$$

OHZ009>014-019>023-028>033-038-089-270900-
   NORTHEAST OHIO

CITY           SKY/WX    TMP DP  RH WIND       PRES   REMARKS
CLE-HOPKINS    CLOUDY    68  65  90 S14       30.01F
CLE-LAKEFRONT  RAIN      70  64  81 S16G24    29.98S
CUY CO. ARPT   NOT AVBL
LORAIN-ELYRIA  MOCLDY    68  65  90 SW12      30.00S
ASHTABULA      CLOUDY    67  65  93 S12       30.02S
AKRON-CANTON   CLOUDY    67  64  90 SW9       30.05S
WOOSTER        MOCLDY    66  64  93 S9        30.04F
MANSFIELD      MOCLDY    67  64  90 S14       30.03S
YOUNGSTOWN     CLOUDY    66  63  90 SW8       30.04F
$$

OHZ042-051>053-060>062-070>072-077>081-270900-
  SOUTHWEST OHIO

CITY           SKY/WX    TMP DP  RH WIND       PRES   REMARKS
CINC-COVINGTON CLOUDY    67  65  93 S8        30.05F
CINC-LUNKEN    PTCLDY    66  65  96 S7        30.05F
HAMILTON       PTCLDY    68  66  93 CALM      30.04F
DAYTON         PTCLDY    67  65  93 S9        30.04F
WRIGHT-PAT AFB MOCLDY    66  66  98 S7        30.03F
DAYTON GENERAL CLOUDY    67  65  93 SW7       30.03F
WILMINGTON     CLOUDY    67  64  90 SW10      30.05F
$$

OHZ036-037-039>041-045>050-054>059-063>069-073>076-082>088-270900-
  CENTRAL AND SOUTHEAST OHIO

CITY           SKY/WX    TMP DP  RH WIND       PRES   REMARKS
COLUMBUS       CLOUDY    67  65  93 S9        30.05F
OSU AIRPORT    CLOUDY    67  64  90 SW8       30.05S
BOLTON FIELD   NOT AVBL
RICKENBACK AFB CLOUDY    66  64  94 S6        30.05S
NEWARK         CLOUDY    68  65  90 SW7       30.05F
MARION         MOCLDY    66  63  90 SW13      30.03S
LANCASTER      CLOUDY    68  64  87 S8        30.06F
ZANESVILLE     CLOUDY    67  63  87 SW7       30.07S
NEW PHILLY     NOT AVBL
$$



USA.gov is the U.S. government's official web portal to all federal, state and local government web resources and services.